Regional Weather Roundup
Issued by NWS

Home | Current Version | Previous Version | Graphics & Text | Print | Product List | Glossary On
Versions: 1 2 3 4 5 6 7 8 9 10 11 12 13 14 15 16 17 18 19 20 21 22 23 24 25 26 27 28 29 30 31 32 33 34 35 36 37 38 39 40 41 42 43 44 45 46 47 48 49 50
000
ASUS44 KMEG 290910
RWRTN
TENNESSEE HOURLY STATE WEATHER ROUNDUP
NATIONAL WEATHER SERVICE MEMPHIS TN
400 AM CDT MON AUG 29 2016

TNZ002-004-019-021-049-052-054-088>092-291000-
WEST TENNESSEE

CITY           SKY/WX    TMP DP  RH WIND       PRES   REMARKS
MEMPHIS INTL   PTCLDY    81  71  71 NE3       30.05F
NWS MEMPHIS      N/A     77 N/A N/A MISG        N/A
JACKSON        PTCLDY    74  73  97 CALM      30.08S
DYERSBURG      CLEAR     73  72  94 MISG      30.08S
UNION CITY     CLEAR     73  72  94 CALM      30.07F
PARIS          CLEAR     72  72 100 E3        30.11S
LEXINGTON      CLEAR     73  72  94 CALM      30.08F
$$

TNZ008-025-027-028-033-062-065-066-291000-
NORTH MIDDLE TENNESSEE

CITY           SKY/WX    TMP DP  RH WIND       PRES   REMARKS
NASHVILLE      CLEAR     72  68  87 NE5       30.12S
CLARKSVILLE    CLEAR     71  68  90 E5        30.11F
COOKEVILLE     CLEAR     70  70 100 CALM      30.13S
CROSSVILLE     CLOUDY    69  67  93 CALM      30.19S
$$

TNZ061-075-076-078-094-096-097-291000-
SOUTH MIDDLE TENNESSEE

CITY           SKY/WX    TMP DP  RH WIND       PRES   REMARKS
FAYETTEVILLE   CLOUDY    73  70  88 NE5       30.12R
TULLAHOMA      CLEAR     72  70  94 CALM      30.14S
WINCHESTER     CLEAR     73  70  88 E6        30.13R
MCMINNVILLE    CLEAR     70  70 100 NE5       30.14S
COLUMBIA       CLEAR    N/A N/A N/A CALM      30.10S
SHELBYVILLE    CLEAR     72  72 100 CALM      30.13S
$$

TNZ017-018-042-046-047-291000-
NORTHEAST TENNESSEE

CITY           SKY/WX    TMP DP  RH WIND       PRES   REMARKS
TRI CITIES     PTCLDY    67  65  93 CALM      30.19S
ELIZABETHTON     N/A     66  61  82 CALM      30.20S
$$

TNZ012-013-036-069-073-074-291000-
CENTRAL EAST TENNESSEE

CITY           SKY/WX    TMP DP  RH WIND       PRES   REMARKS
KNOXVILLE      PTCLDY    71  67  87 CALM      30.13F
OAK RIDGE      CLEAR     71  68  90 CALM      30.16R
GATLINBURG     CLOUDY    66  66 100 CALM      30.14S VSB 1/4
MORRISTOWN     PTCLDY    72  66  83 CALM      30.15S
$$

TNZ083-085-099-291000-
SOUTHEAST TENNESSEE

CITY           SKY/WX    TMP DP  RH WIND       PRES   REMARKS
CHATTANOOGA    CLEAR     73  71  93 CALM      30.13R
$$

SKY/WX REPORTED AS FAIR MEANS FEW OR NO CLOUDS BELOW
12 THOUSAND FEET.





USA.gov is the U.S. government's official web portal to all federal, state and local government web resources and services.